Weather in Ust'-Khoperskaya

Russia / Volgograd Oblast     49°34′30″N   42°23′37″E
temp.,
°C
wind,
m/s
gust,
m/s
humid.,
%
clouds,
%
prec.,
mm/h
press.,
hPa
HPBL,
m
16 september, thu
thu1600:00+12nw33420 0.0 101537
03:00+10nw22465 0.0 101520
06:00+9nw225218 0.0 101522
09:00+14nw4537100 0.0 1016526
12:00+17nnw563480 0.0 10161683
15:00+19nnw563025 0.0 10161941
18:00+16nne46350 0.0 1016161
21:00+12nne35410 0.0 101886
17 september, fri
fri1700:00+9ne22520 0.0 101930
03:00+8e22560 0.0 102012
06:00+8se22590 0.0 102012
09:00+14se22427 0.0 1019428
12:00+18ssw23315 0.0 10181678
15:00+20wsw342714 0.0 10161987
18:00+17s12355 0.0 101511
21:00+14s234036 0.0 101634
18 september, sat
sat1800:00+13ssw4844100 0.0 1015142
03:00+15wsw4939100 0.0 1015267
06:00+13nne61043100 0.0 1017417
09:00+13ene4748100 0.0 1018419
12:00+14ene4545100 0.0 1018542
15:00+15ene4646100 0.0 1018640
18:00+13ene4743100 0.0 1019339
21:00+12ene495292 0.0 1019306
19 september, sun
sun1900:00+10ene4105994 0.0 1019249
03:00+10e5125693 0.0 1019309
06:00+11ese61357100 0.0 1018324
09:00+15ese71244100 0.0 1018548
12:00+18sse71044100 0.0 10171598
15:00+15sse61267100 0.2 1016834
18:00+14se71470100 0.2 1016694
21:00+16se61561100 1.1 1015691
20 september, mon
mon2000:00+15sse61369100 1.7 1014748
03:00+14sse81569100 2.0 1013633
06:00+13sse71291100 2.6 1013499
09:00+13sse71283100 4.8 1013611
12:00+16sse71080100 0.8 1013831
15:00+19sse786058 1.2 10121045
18:00+16ese58691 0.0 1012229
21:00+14ese357934 0.8 101389